OKEAN-0
1 25860U 99039A 12158.87592059 .00000437 00000-0 73700-4 0 6478
2 25860 097.9348 121.7305 0000696 036.7052 323.4207 14.74207601693052
NOAA-16
1 26536U 00055A 12157.91808236 -.00000045 00000-0 76452-6 0 07702
2 26536 099.0962 199.8664 0011403 113.7964 246.4401 14.12743816603447
NOAA-17
1 27453U 02032A 12157.92424417 .00000147 00000-0 81292-4 0 07296
2 27453 098.3366 185.5300 0011685 184.4672 175.6408 14.24440495517150
NOAA-18
1 28654U 05018A 12157.93787712 .00000420 00000-0 25552-3 0 02057
2 28654 099.0445 115.9321 0014186 182.9169 177.1942 14.11658487362979
NOAA-19
1 33591U 09005A 12157.65968194 .00000283 00000-0 18055-3 0 03965
2 33591 098.8642 097.5919 0014998 056.0848 304.1725 14.11345628171389
HUBBLE
1 20580U 90037B 12157.23442705 .00001704 00000-0 11273-3 0 111
2 20580 028.4673 221.7732 0003475 292.5723 067.4532 15.02529362 12937
ISS
1 25544U 98067A 12158.78670139 .00012336 00000-0 17911-3 0 7027
2 25544 051.6365 174.4085 0010403 037.9761 316.7829 15.56181056776383
CO-58
1 28895U 05043F 12158.39639028 .00000844 00000-0 18235-3 0 1935
2 28895 097.9128 025.1434 0017828 180.8233 179.2960 14.60632449352081
FALCON
1 30776U 07006E 12158.59312844 .00003763 00000-0 24554-3 0 3625
2 30776 035.4322 341.5425 0002612 312.0355 048.0148 15.07494028288652
MAST
1 31126U 07012K 12157.52531589 .00000634 00000-0 15134-3 0 4745
2 31126 097.8744 169.3094 0094342 146.4237 214.2981 14.54155239272574
CAPE1
1 31130U 07012P 12157.68917654 .00000667 00000-0 16133-3 0 04889
2 31130 097.8828 165.8530 0102238 158.8709 201.6729 14.52932342272108
COMPASS
1 32787U 08021E 12157.67411647 .00002617 00000-0 32024-3 0 03220
2 32787 097.8003 219.2629 0016285 097.5606 262.7482 14.83972279222102
AAUSAT2
1 32788U 08021F 12158.38779729 .00002700 00000-0 32766-3 0 3123
2 32788 097.8018 220.3363 0015909 095.4485 264.8568 14.84295249222239
DO-64
1 32789U 08021G 12157.90737632 .00004135 00000-0 48095-3 0 3270
2 32789 097.8140 221.8449 0015930 094.4852 265.8171 14.85757920222206
CO-66
1 32791U 08021J 12157.65919571 .00001765 00000-0 22101-3 0 03130
2 32791 097.8020 218.9999 0016830 097.9353 262.3821 14.83392492222039
RS-30
1 32953U 08025A 12158.82641211 .00000010 00000-0 00000 0 0 8437
2 32953 082.5006 301.5800 0018186 333.8295 026.1869 12.43024289183277
TACSAT-3
1 35001U 09028A 12121.72616188 .15204951 73582-5 42606-3 0 00016
2 35001 040.4259 351.8840 0007146 275.2650 085.0693 16.45157000166990
PHARMSAT
1 35002U 09028B 12157.96524924 .00137550 00000-0 62420-3 0 09242
2 35002 040.4568 139.1741 0006832 160.1824 200.0419 15.82626312172547
METEOR-M
1 35865U 09049A 12158.66410313 -.00000014 00000-0 13357-4 0 4758
2 35865 098.6560 213.1873 0003405 082.9171 277.2389 14.21863307141108
RS-38
1 35869U 09049E 12158.68681318 .00000032 00000-0 34113-4 0 4830
2 35869 098.6505 213.2057 0005555 082.2748 277.9061 14.22072727141122
JUGNU
1 37839U 11058B 12157.93497370 .00000620 00000-0 19019-3 0 01615
2 37839 019.9606 066.3935 0020321 099.7662 260.4994 14.12058464033658
SRMSAT
1 37841U 11058D 12157.90340637 .00000264 00000-0 00000 0 0 1618
2 37841 019.9710 071.2616 0011701 068.4107 291.7576 14.10142236 33592
RAX-2
1 37853U 11061D 12158.57338924 .00006087 00000-0 48642-3 0 1960
2 37853 101.7152 193.9243 0247146 021.1957 339.9269 14.79965231 32828
AUBIESAT
1 37854U 11061E 12158.86881027 .00006921 00000-0 54433-3 0 1973
2 37854 101.7151 194.5867 0247625 019.9236 341.1437 14.80342593 32862
HRBE
1 37855U 11061F 12157.93515433 .00006085 00000-0 47988-3 0 02076
2 37855 101.7187 193.1911 0248695 022.5346 338.6557 14.80189942032723
RS-39
1 38051U 11062C 12158.87908565 .00009506 00000-0 39783-3 0 4002
2 38051 051.6350 208.9531 0012633 002.1145 352.5016 15.24154072 20392
E-STAR
1 38079U 12006C 12158.83908563 .00024521 00000-0 60011-3 0 2735
2 38079 069.4939 339.3143 0747467 260.9524 090.6279 14.14217464 16125
GOLIAT
1 38085U 12006J 12157.90351288 .00025298 00000-0 61731-3 0 2502
2 38085 069.4918 341.6738 0752417 262.2342 089.2932 14.13215935 15982
HORYU-2
1 38340U 12025D 12158.95660614 .00001536 00000-0 26456-3 0 242
2 38340 098.1764 098.6634 0013197 008.7013 351.4437 14.69960263 2972
